#timestamp,LO_Frequency,Hit,StdDev 
1629039615.3,286047001.2,N
1629039635.2,286047001.1,N
1629039655.9,286047001.0,N
1629039675.7,286047002.3,N
1629039695.6,286047002.8,N
1629039715.4,286046999.7,N
1629039735.2,286047002.4,N
1629039755.1,286047002.8,N
1629039756.0,286047002.8,N
1629039775.8,286047002.5,N
1629039795.7,286046999.8,N
1629039815.5,286047002.4,N
1629039835.3,286047002.1,N
1629039855.2,286047002.0,N
1629039875.0,286047001.6,N
1629039875.9,286047001.6,N
1629039895.7,286047004.3,N
1629039915.6,286047004.1,N
1629039935.4,286047003.6,N
1629039955.3,286047004.3,N
1629039975.1,286047004.3,N
1629039976.0,286047004.3,N
1629039995.8,286047003.9,N
1629040015.7,286047004.2,N
1629040035.5,286047003.9,N
1629040055.3,286047004.2,N
1629040075.2,286047003.0,N
1629040095.0,286047004.1,N
1629040095.9,286047004.1,N
1629040115.8,286047002.9,N
1629040135.6,286047005.6,Y
1629040155.4,286047011.9,P
1629040175.3,286047002.2,N
1629040195.1,286047001.3,N
1629040215.9,286047003.8,N
1629040235.7,286047001.3,N
1629040255.5,286047004.0,N
1629040275.4,286047004.4,N
1629040295.2,286047004.2,N
1629040315.1,286047003.8,N
1629040316.0,286047003.8,N
1629040335.8,286047004.1,N
1629040355.6,286047003.4,N
1629040375.5,286047003.7,N
1629040395.3,286047003.9,N
1629040415.2,286047004.0,N
1629040435.9,286047003.9,N
1629040455.7,286047004.0,N
1629040475.6,286047004.1,N
1629040495.4,286047003.1,N
1629040515.3,286047003.1,N
1629040535.1,286047004.1,N
1629040536.0,286047004.1,N
1629040555.8,286047003.2,N
1629040575.7,286047001.4,N
1629040595.5,286047001.7,N
1629040615.3,286047002.2,N
1629040635.2,286047002.5,N
1629040655.0,286046999.7,N
1629040655.9,286046999.7,N
1629040675.8,286047000.1,N
1629040695.6,286047000.1,N
1629040715.4,286047000.3,N
1629040735.3,286047002.3,N
1629040755.1,286047002.2,N
1629040775.8,286047002.5,N
1629040795.7,286046999.8,N
1629040815.5,286047002.7,N
1629040835.4,286047000.3,N
1629040855.2,286047002.7,N
1629040875.0,286047002.4,N
1629040875.9,286047002.4,N
1629040895.8,286047002.6,N
1629040915.6,286047000.1,N
1629040935.4,286046999.7,N
1629040955.3,286047002.5,N
1629040975.1,286047001.9,N
1629040995.9,286047003.2,N
1629041015.7,286047003.2,N
1629041035.5,286047005.6,Y
1629041055.4,286047003.0,P
1629041075.2,286047003.2,P
1629041095.1,286047006.0,P
1629041096.0,286047006.0,Y
1629041115.8,286047000.2,P
1629041135.6,286047002.6,N
1629041155.5,286046999.8,N
1629041175.3,286047002.5,N
1629041195.1,286047002.5,N
1629041215.9,286047002.6,N
1629041235.7,286047002.3,N
1629041255.6,286047002.5,N
1629041275.4,286046999.7,N
1629041295.2,286047000.3,N
1629041315.1,286047000.6,N
1629041316.0,286047000.6,N
1629041335.8,286047002.7,N
1629041355.7,286047001.6,N
1629041375.5,286047001.7,N
1629041395.3,286047004.3,Y
1629041415.2,286047002.5,P
1629041435.0,286047002.4,P
1629041435.9,286047002.4,P
1629041455.8,286046999.8,N
1629041475.6,286047002.0,N
1629041495.4,286047002.7,N
1629041515.3,286046999.8,N
1629041535.1,286047000.4,N
1629041555.9,286046998.9,N
1629041575.7,286046999.0,N
1629041595.5,286046998.4,N
1629041615.4,286046997.3,N
1629041635.2,286046997.3,N
1629041655.0,286046997.0,N
1629041655.9,286046997.0,N
1629041675.8,286046997.0,N
1629041695.6,286046997.7,N
1629041715.4,286046998.0,N
1629041735.3,286046995.7,N
1629041755.1,286046996.0,N
1629041775.9,286046995.1,N
1629041795.7,286046995.9,N
1629041815.5,286046993.4,N
1629041835.4,286046993.4,N
1629041855.2,286046994.6,N
1629041875.0,286046991.8,N
1629041875.9,286046991.8,N
1629041895.8,286046994.8,N
1629041915.6,286046994.6,N
1629041935.5,286046994.3,N
1629041955.3,286046994.4,N
1629041975.1,286046994.5,N
1629041995.9,286046994.3,N
1629042015.7,286046992.2,N
1629042035.5,286046992.2,N
1629042055.4,286046991.8,Y
1629042075.2,286046997.1,P
1629042095.1,286046997.9,P
1629042096.0,286046997.9,N
1629042115.8,286046997.5,Y
1629042135.6,286047001.1,P
1629042155.5,286046998.3,N
1629042175.3,286046999.1,N
1629042195.2,286046998.5,N
1629042215.9,286046998.7,N
1629042235.7,286046998.1,N
1629042255.6,286047000.7,N
1629042275.4,286047001.1,N
1629042295.2,286046998.8,N
1629042315.1,286046999.1,N
1629042316.0,286046999.1,N
1629042335.8,286046996.6,N
1629042355.7,286046999.6,N
1629042375.5,286046997.0,N
1629042395.3,286046999.5,N
1629042415.2,286046996.5,N
1629042435.0,286046996.6,N
1629042435.9,286046996.6,N
1629042455.7,286046999.2,N
1629042475.6,286046996.9,N
1629042495.4,286046996.8,N
1629042515.3,286046996.7,N
1629042535.1,286046996.9,N
1629042536.0,286046996.9,N
1629042555.8,286046997.8,N
1629042575.7,286046998.0,N
1629042595.5,286046995.4,Y
1629042615.3,286046997.4,P
1629042635.2,286046999.5,N
1629042655.0,286046996.6,P
1629042655.9,286046996.6,Y
1629042675.8,286047001.0,P
1629042695.6,286046999.9,N
1629042715.4,286046998.1,N
1629042735.3,286047000.7,N
1629042755.1,286046998.7,N
1629042775.9,286046998.1,N
1629042795.7,286047001.0,N
1629042815.5,286046998.1,N
1629042835.4,286047001.2,N
1629042855.2,286047000.8,N
1629042875.1,286047001.2,N
1629042876.0,286047001.2,N
1629042895.8,286046998.8,N
1629042915.6,286046996.6,N
1629042935.5,286046996.6,N
1629042955.3,286046996.6,N
1629042975.1,286046997.2,N
1629042995.9,286046997.3,N
1629043015.7,286046996.8,N
1629043035.6,286046996.9,N
1629043055.5,286046999.1,N
1629043075.3,286046996.5,N
1629043095.1,286046996.5,N
1629043115.9,286046998.9,N
1629043135.7,286047001.2,N
1629043155.6,286046998.5,N
1629043175.4,286046998.1,N
1629043195.3,286046998.6,N
